This demonstration page uses our WeatherBlox Daily Observations layout. Learn more.

Left ArrowRight Arrow

40.92945, -100.16068

Hourly Observations for April 29, 2019

Temp ( °F °C ) Dew Point ( °F °C ) Humidity (%) Winds ( mph kmh ) Pressure ( in mb ) Visibility ( mi km ) Precip ( " mm )
12:15 am 00:15 Cloudy with Light Rain 53 11.5 49 9.3 86 86 N 14 22 29.82 1010 10 16 0.00 0.00
12:35 am 00:35 Cloudy 52 11.2 48 8.9 86 86 N 17 28 29.82 1010 10 16 0.00 0.00
12:55 am 00:55 Cloudy 51 10.4 47 8.1 86 86 N 24 39 29.84 1010 10 16 0.01 0.25
1:15 am 01:15 Cloudy 49 9.3 45 7 86 86 N 23 37 29.86 1011 10 16 0.00 0.00
1:35 am 01:35 Cloudy 48 8.8 43 6.1 83 83 N 21 33 29.89 1012 10 16 0.00 0.00
1:55 am 01:55 Cloudy 47 8.6 42 5.8 83 83 N 18 30 29.90 1013 10 16 0.00 0.00
2:15 am 02:15 Cloudy 47 8.5 41 5.1 79 79 N 17 28 29.91 1013 10 16 0.00 0.00
2:35 am 02:35 Cloudy with Drizzle 47 8.2 41 5.1 81 81 N 13 20 29.92 1013 10 16 0.00 0.00
2:55 am 02:55 Cloudy 46 8 41 4.9 81 81 N 10 17 29.93 1014 10 16 0.00 0.00
3:15 am 03:15 Cloudy 46 8 40 4.4 78 78 N 12 19 29.94 1014 10 16 0.00 0.00
3:35 am 03:35 Cloudy 46 8 39 3.9 76 76 NNW 13 20 29.96 1015 10 16 0.00 0.00
3:55 am 03:55 Cloudy 46 7.9 39 4 77 77 NNW 16 26 29.97 1015 10 16 0.00 0.00
4:15 am 04:15 Cloudy 46 8 39 4 76 76 NNW 17 28 29.98 1015 10 16 0.00 0.00
4:35 am 04:35 Cloudy 46 7.9 39 3.9 76 76 N 17 28 29.99 1016 10 16 0.00 0.00
4:55 am 04:55 Mostly Cloudy 46 7.5 38 3.3 75 75 NNW 18 30 30.01 1016 10 16 0.00 0.00
5:15 am 05:15 Partly Cloudy 44 6.9 37 2.5 74 74 NNW 17 28 30.04 1017 10 16 0.00 0.00
5:35 am 05:35 Clear 43 6.3 35 1.7 73 73 NNW 18 30 30.05 1017 10 16 0.00 0.00
5:55 am 05:55 Clear 43 6 33 0.6 69 69 N 14 22 30.07 1018 10 16 0.00 0.00
6:15 am 06:15 Clear 42 5.5 32 0 68 68 N 16 26 30.08 1019 10 16 0.00 0.00
6:35 am 06:35 Clear 41 5 31 -0.5 68 68 N 15 24 30.11 1020 10 16 0.00 0.00
6:55 am 06:55 Sunny 40 4.5 31 -0.8 69 69 N 15 24 30.12 1020 10 16 0.00 0.00
7:15 am 07:15 Sunny 40 4.5 30 -1 68 68 N 16 26 30.13 1020 10 16 0.00 0.00
7:35 am 07:35 Sunny 40 4.6 31 -0.6 69 69 N 15 24 30.15 1021 10 16 0.00 0.00
7:55 am 07:55 Sunny 41 4.9 31 -0.6 68 68 NNW 15 24 30.16 1021 10 16 0.00 0.00
8:15 am 08:15 Sunny 41 5 31 -0.6 67 67 NNW 15 24 30.16 1021 10 16 0.00 0.00
8:35 am 08:35 Sunny 43 5.9 31 -0.3 65 65 NNW 21 33 30.16 1021 10 16 0.00 0.00
8:55 am 08:55 Sunny 43 6.3 32 0.2 65 65 NNW 18 30 30.16 1021 10 16 0.00 0.00
9:15 am 09:15 Sunny 43 6.1 30 -1 61 61 NNW 23 37 30.16 1021 10 16 0.00 0.00
9:35 am 09:35 Sunny 43 6.3 31 -0.6 62 62 NNW 22 35 30.16 1021 10 16 0.00 0.00
9:55 am 09:55 Sunny 44 6.5 30 -0.9 60 60 NNW 22 35 30.16 1021 10 16 0.00 0.00
10:15 am 10:15 Sunny 44 6.9 31 -0.6 59 59 NNW 20 31 30.16 1021 10 16 0.00 0.00
10:35 am 10:35 Sunny 45 7.3 31 -0.5 58 58 NNW 17 28 30.17 1022 10 16 0.00 0.00
10:55 am 10:55 Sunny 46 7.8 32 -0.2 57 57 N 20 31 30.18 1022 10 16 0.00 0.00
11:15 am 11:15 Sunny 47 8.3 32 -0.2 55 55 NW 21 33 30.18 1022 10 16 0.00 0.00
11:35 am 11:35 Sunny 47 8.6 33 0.3 56 56 N 23 37 30.16 1021 10 16 0.00 0.00
11:55 am 11:55 Sunny 48 9 32 -0.1 53 53 N 17 28 30.16 1021 10 16 0.00 0.00
12:15 pm 12:15 Sunny 49 9.4 32 0.1 53 53 NNW 14 22 30.17 1022 10 16 0.00 0.00
12:35 pm 12:35 Sunny 47 8.6 31 -0.6 53 53 NNW 21 33 30.17 1022 10 16 0.00 0.00
12:55 pm 12:55 Sunny 49 9.5 32 -0.2 51 51 N 17 28 30.16 1021 10 16 0.00 0.00
1:15 pm 13:15 Sunny 51 10.7 33 0.3 49 49 NNW 16 26 30.14 1021 10 16 0.00 0.00
1:35 pm 13:35 Sunny 51 10.3 32 -0.1 49 49 NW 18 30 30.16 1021 10 16 0.00 0.00
1:55 pm 13:55 Sunny 51 10.5 32 0 49 49 N 13 20 30.16 1021 10 16 0.00 0.00
2:15 pm 14:15 Partly Cloudy 52 10.9 31 -0.3 46 46 NNW 10 17 30.15 1021 10 16 0.00 0.00
2:35 pm 14:35 Partly Cloudy 52 11.2 33 0.3 47 47 NW 10 17 30.15 1021 10 16 0.00 0.00
2:55 pm 14:55 Partly Cloudy 52 11.2 32 0.2 47 47 N 17 28 30.14 1021 10 16 0.00 0.00
3:15 pm 15:15 Cloudy 52 11 31 -0.6 45 45 NNW 20 31 30.13 1020 10 16 0.00 0.00
3:35 pm 15:35 Cloudy 51 10.5 32 -0.2 48 48 NNW 17 28 30.14 1021 10 16 0.00 0.00
3:55 pm 15:55 Cloudy 50 10.1 31 -0.5 48 48 NNW 16 26 30.14 1021 10 16 0.00 0.00
4:15 pm 16:15 Cloudy 51 10.8 32 0 48 48 NNW 20 31 30.12 1020 10 16 0.00 0.00
4:35 pm 16:35 Partly Cloudy 51 10.6 32 -0.2 47 47 NNW 16 26 30.13 1020 10 16 0.00 0.00
4:55 pm 16:55 Sunny 51 10.3 31 -0.7 47 47 N 16 26 30.13 1020 10 16 0.00 0.00
5:15 pm 17:15 Mostly Cloudy 50 9.9 31 -0.5 49 49 N 12 19 30.13 1020 10 16 0.00 0.00
5:35 pm 17:35 Partly Cloudy 49 9.4 31 -0.8 49 49 N 15 24 30.14 1021 10 16 0.00 0.00
5:55 pm 17:55 Partly Cloudy 48 9.1 30 -1.1 49 49 N 15 24 30.15 1021 10 16 0.00 0.00
6:15 pm 18:15 Cloudy 48 8.7 30 -0.9 51 51 NNE 13 20 30.16 1021 10 16 0.00 0.00
6:35 pm 18:35 Cloudy 48 8.8 31 -0.8 51 51 N 14 22 30.16 1021 10 16 0.00 0.00
6:55 pm 18:55 Cloudy 47 8.5 31 -0.8 52 52 N 14 22 30.17 1022 10 16 0.00 0.00
7:15 pm 19:15 Mostly Cloudy 47 8.4 30 -1 52 52 NNE 16 26 30.17 1022 10 16 0.00 0.00
7:35 pm 19:35 Mostly Cloudy 46 7.7 31 -0.8 55 55 NNE 14 22 30.17 1022 10 16 0.00 0.00
7:55 pm 19:55 Cloudy 45 7.3 30 -0.9 56 56 NNE 13 20 30.19 1022 10 16 0.00 0.00
8:15 pm 20:15 Cloudy 45 7 30 -1.2 56 56 NNE 14 22 30.20 1023 10 16 0.00 0.00
8:35 pm 20:35 Cloudy 44 6.7 31 -0.8 59 59 NNE 10 17 30.20 1023 10 16 0.00 0.00
8:55 pm 20:55 Cloudy 44 6.5 31 -0.7 60 60 NNE 9 15 30.21 1023 10 16 0.00 0.00
9:15 pm 21:15 Cloudy 43 6.3 31 -0.6 62 62 N 12 19 30.22 1023 10 16 0.00 0.00
9:35 pm 21:35 Cloudy 43 6.2 31 -0.4 63 63 N 13 20 30.22 1023 10 16 0.00 0.00
9:55 pm 21:55 Cloudy 43 6 32 -0.2 65 65 N 12 19 30.23 1024 10 16 0.00 0.00
10:15 pm 22:15 Cloudy 42 5.8 31 -0.4 65 65 N 13 20 30.22 1023 10 16 0.00 0.00
10:35 pm 22:35 Cloudy 42 5.7 31 -0.4 65 65 NNE 7 11 30.23 1024 10 16 0.00 0.00
10:55 pm 22:55 Cloudy 42 5.6 32 0 68 68 NNE 6 9 30.24 1024 10 16 0.00 0.00
11:15 pm 23:15 Cloudy 42 5.6 32 0 68 68 NNE 7 11 30.25 1024 10 16 0.00 0.00
11:35 pm 23:35 Cloudy 42 5.5 32 0 68 68 NNE 8 13 30.24 1024 10 16 0.00 0.00
11:55 pm 23:55 Cloudy 42 5.5 32 -0.1 68 68 NE 10 17 30.23 1024 10 16 0.00 0.00

Powered by AerisWeather